Regional Weather Roundup
Issued by NWS Wakefield, VA

Home | Current Version | Previous Version | Text Only | Print | Product List | Glossary On
Versions: 1 2 3 4 5 6 7 8 9 10 11 12 13 14 15 16 17 18 19 20 21 22 23 24 25 26 27
000
ASUS41 KAKQ 022315
RWRAKQ

REGIONAL WEATHER ROUNDUP
NATIONAL WEATHER SERVICE WAKEFIELD VA
700 PM EDT MON MAY 02 2016

Note: "fair" indicates few or no clouds below 12,000 feet with no
significant weather and/or obstructions to visibility. * = Denotes
station may not report precipitation (e.g., rain,snow,etc.),
thunder or fog.

VAZ042-051-052>054-056-030000-
NORTHERN VIRGINIA

CITY           SKY/WX    TMP DP  RH WIND       PRES   REMARKS
WASH NATIONAL  TSTM      74  66  76 CALM      29.83R
DULLES         PTSUNNY   69  60  73 E6        29.81R
FORT BELVOIR   TSTM      68  66  94 E3        29.83R
QUANTICO       CLOUDY    73  62  68 NE6       29.82R THUNDER
FREDERICKSBRG* FAIR      81  65  58 S8        29.80R
STAFFORD*      FAIR      79  61  53 S5        29.85R
WARRENTON      FAIR      73  56  56 E8        29.81R
CULPEPER*      PTSUNNY   81  64  54 S7        29.82R
MANASSAS*      CLOUDY    66  63  88 E7        29.81F
LEESBURG*      PTSUNNY   79  68  69 SE8       29.82R
WINCHESTER       N/A     77  64  65 CALM      29.81R
FRONT ROYAL*   MOCLDY    77  61  57 S10       29.79S
LURAY*         MOCLDY    73  61  64 CALM      29.81S
$$

VAZ048-049-060>072-079>083-030000-
CENTRAL AND SOUTH CENTRAL VIRGINIA

CITY           SKY/WX    TMP DP  RH WIND       PRES   REMARKS
RICHMOND       CLOUDY    77  65  66 S8        29.85R
CHESTERFIELD*  MOCLDY    73  59  60 CALM      29.87R
PETERSBURG*    FAIR      73  70  88 CALM      29.87R
HANOVER        FAIR      74  64  71 VRB3      29.85F
TAPPAHANNOCK*  FAIR      73  67  83 S3        29.84F
QUINTON*       MOCLDY    78  67  67 S6        29.85R
CHARLOTTSVILLE TSTM      72  64  76 SW9G20    29.87R
GORDONSVILLE*  MOCLDY    78  65  63 SW10G16   29.84R
ORANGE*        CLOUDY    79  63  57 SW13      29.85R
LOUISA*        FAIR      81  68  65 S3        29.84R
BUMPASS*       FAIR      78  64  63 S5        29.83R
FARMVILLE*     FAIR      74  67  77 CALM      29.85R
CREWE*         MOCLDY    75  66  74 CALM      29.87R
FORT PICKETT*  NOT AVBL
CHASE CITY*    MOCLDY    75  60  60 S8G18     29.89R
CLARKSVILLE*   MOCLDY    72  63  73 SW14G29   29.90R
SOUTH HILL*    FAIR      74  62  68 S15G26    29.96R
LAWRENCEVILLE* MOCLDY    78  64  62 SW20G32   29.90R
EMPORIA*       FAIR      79  64  61 S17G26    29.90R
$$

VAZ088>098-030000-
SOUTHEAST VIRGINIA

CITY           SKY/WX    TMP DP  RH WIND       PRES   REMARKS
NORFOLK        FAIR      82  65  56 S16       29.86R
VIRGINIA BEACH MOCLDY    85  66  53 S13G22    29.86R
NORFOLK NAVAL  MOCLDY    82  65  56 S7        29.88R
WEST POINT*    PTSUNNY   78  60  54 S17G24    29.88R
SALUDA*        FAIR      80  69  67 S6        29.84S
NEWPORT NEWS   FAIR      80  66  62 S8        29.86R
LANGLEY AFB    FAIR      78  67  69 E7        29.86R
FORT EUSTIS    PTSUNNY   79  65  62 S5        29.84R THUNDER
WILLIAMSBURG*  FAIR      75  70  83 NW5       29.87R
HR EXEC AP*    FAIR      82  66  57 S12       29.89R
FRANKLIN*      FAIR      81  65  59 S9        29.88R
US460-WAKEFLD  FAIR      82  66  58 S7        29.86S
$$

VAZ020-022-025-037-045-030000-
WEST CENTRAL AND SOUTHWEST VIRGINIA

CITY           SKY/WX    TMP DP  RH WIND       PRES   REMARKS
STAUNTON*      RAIN      67  62  84 S12G20    29.88R
WAYNESBORO*    CLOUDY    63  58  85 S6        29.88S
HOT SPRINGS VA TSTM      57  55  94 W16G25    30.01R
LYNCHBURG      FAIR      73  63  70 NE5       29.88S
DANVILLE       PTSUNNY   71  65  81 SW8       29.90R
SOUTH BOSTON*  CLOUDY    68  67  95 SW16G32   29.88R
MARTINSVILLE   FAIR      62  61  94 CALM      29.90F
ROANOKE        PTSUNNY   72  61  68 NE9       29.88S
BLACKSBURG     HVY RAIN  62  59  91 NW17G31   30.01R
DUBLIN*        TSTM      63  61  93 N6        29.99R
MARION*        CLOUDY    64  52  65 NW7       30.01R THUNDER
HILLSVILLE*    CLOUDY    69  62  77 W7        29.94F
RICHLANDS*     CLOUDY    58  38  48 CALM      30.02F
WISE*          RAIN      55  55 100 CALM      30.02F
ABINGDON*      PTSUNNY   65  52  63 N16G26    29.96R
$$

MDZ021>025-VAZ099-100-030000-
SOUTHERN MARYLAND AND THE DELMARVA PENINSULA

CITY           SKY/WX    TMP DP  RH WIND       PRES   REMARKS
PATUXENT RIVER PTSUNNY   67  63  87 SE8       29.84S
BAY BRIDGE APT NOT AVBL
LEONARDTOWN    MOSUNNY   72  64  78 E3        29.85F
DOVER          CLEAR     62  62 100 E8        29.86F
GEORGETOWN     CLEAR     70  62  76 NE7       29.87S
EASTON         PTSUNNY  N/A N/A N/A SE5       29.89F
CAMBRIDGE      CLEAR     73  66  78 SE3       29.84S
SALISBURY      CLEAR     77  66  68 S6        29.85F
OCEAN CITY     CLEAR     62  59  90 S7        29.87F
WALLOPS ISLAND FAIR      68  63  84 S6        29.88S
ACCOMACK*      FAIR      73  63  68 S7        29.87S
$$

NCZ012>017-030>032-030000-
NORTH CENTRAL AND EASTERN NORTH CAROLINA

CITY           SKY/WX    TMP DP  RH WIND       PRES   REMARKS
ROANOKE RAPIDS HVY RAIN  72  63  73 W9G22     29.90R
RALEIGH        CLOUDY    72  66  81 S5        29.93R
ELIZABETH CITY MOCLDY    79  68  69 S10       29.90R
AHOSKIE*       CLOUDY    78  67  69 S5        29.89R
EDENTON*       LGT RAIN  76  64  64 S16       29.93R
CURRITUCK*     MOCLDY    82  67  61 SW6       29.91R
KILL DEVIL HLS MOCLDY    78  67  69 S7        29.91R
MANTEO         NOT AVBL
CAPE HATTERAS  CLOUDY    72  68  87 SW9       29.98R
TARBORO*       FAIR      79  69  71 S7G18     29.91S
GOLDSBORO      NOT AVBL
WASHINGTON     RAIN      67  64  92 W12G18    29.98R
GREENVILLE     LGT RAIN  72  64  78 S5        29.96R
NEW BERN       CLOUDY    75  66  73 S10       29.96R
WILMINGTON     CLOUDY    77  67  71 S12       29.97R
$$

VAZ048-030000-
ELSEWHERE

CITY           SKY/WX    TMP DP  RH WIND       PRES   REMARKS
HARRISBURG PA  CLOUDY    64  57  78 NE6       29.85S HAZE
BALTIMORE      CLOUDY    67  60  78 E7        29.84S
ANNAPOLIS      CLOUDY    66  62  87 SE5       29.84F
ANDREWS AFB    LGT RAIN  73  66  80 E7        29.83S
PHILADELPHIA   PTCLDY    65  55  70 CALM      29.89F
HENDERSON NC   RAIN      68  65  92 SW8       29.94R
GREENSBORO     CLOUDY    70  65  84 S7        29.89S
ROCKY MOUNT    CLOUDY    77  70  79 SW8       29.91S
$$

VAZ100-030000-
MARINE

STATION/POSITION TIME  TEMP    WIND        PRES    WAVE   SWELL
                       AIR SEA DIR/SP/G            HT/PER HT/PER
                 (UTC) (F)     (DEG/KT/KT) (MB)    (FT/S) (FT/S)
BRANDYWINE LGT   2200   56                 1012.0F
CAPE MAY NJ      2200   59 59              1011.8F
LEWES DE         2200   61 57              1011.8F
15NM E FENWICK I 2250   57 53              1012.0F   3/ 6
OCEAN-CITY-INLET 2200   61 56              1011.0F
WACHAPREAGUE VA  2200   67 63              1011.1F
THOMAS POINT MD  2300   68 59  100/  4/  4 1011.8F
GOOSES REEF MD   2200   63 60  160/  8/  8 1011.4F   1
COVE POINT MD    2200   64                 1011.2F
SOLOMONS ISLAND  2200   65 62                N/A
BISHOPS HEAD MD  2200   68 65              1010.2F
POTOMAC MD       2200   64 62  110/  8/ 10 1009.6F
CAMBRIDGE MD     2200   78 60              1009.9F
LEWISETTA VA     2200   65 63              1010.1F
RAPPAHANNOCK LGT 2200                      1011.4F
STINGRAY PT      2200   69 62  150/  8/  8 1011.1F   1/ 2
YORK RVR RNG VA  2200                      1010.2F
YORKTOWN VA      2200   82 62              1010.3F
JAMESTOWN VA     2200   79 68  180/  8/  8   N/A     0
DOMINION TERM VA 2200   78                 1010.9F
KIPTOPEKE VA     2200      64                N/A
CHES BAY BRIDGE  2200   74 62              1010.7F
CAPE HENRY VA    2200   76                   N/A
CHESAPEAKE LGHT  2200   72     190/ 22/ 22 1011.6F
WILLOUBY STN VA  2200   81                 1012.0F
CAPE HENRY BUOY  2212      64                N/A     3/11   2/11
CAPE CHARLES BUO 2226      60                N/A     3/11   2/11
OFFSHORE WE BUOY 2221      58                N/A     3/11   2/11
64NM E OF VA BCH 2250   60 54  200/ 14/ 16 1012.6S   4/11   3/11
DUCK PIER NC     2200   79 59              1011.8F
44100 DUCK FRF   2224      63                N/A     3/11   2/11
44056 DUCK FRF   2211      60                N/A     3/11   2/11
OREGON INLET NC  2200   72 71              1013.1F
HATTERAS NC      2200   73 70              1014.1F
DIAMOND SHLS NC  2250   75 74  210/ 17/ 19 1014.6R   4/ 9   3/ 9
CAPE LOOKOUT NC  2300   72     200/ 11/ 14 1014.8R
$$




USA.gov is the U.S. government's official web portal to all federal, state and local government web resources and services.